STARLINK-3716, 52092

Orbit data source: Space-Track

STARLINK-3716, 52092 is a payload satellite owned by SpaceX/Seattle (US) in LEO that was launched on Sat, 19 Mar 2022 UTC via an FALCON 9 launch vehicle from the Air Force Eastern Test Range (AFETR). Payload-class satellites include a variety of spacecraft equipped with specific instruments for various scientific and technological missions. These include communications satellites like Starlink; space stations such as the ISS; scientific satellites like the Hubble; Earth observation satellites from companies like Planet Labs, Umbra, and HawkEye 360; GPS; miniature CubeSats for education and research; and military/defense satellites.

Loading next visibility...
Identifier
52092, 2022-029E
Orbit
LEO
Country
Flag of USUS
Related business
Manufacturer
SpaceX/Seattle
Mission
Operational Commercial Communications
Bus & Motor
STARLINK, Unknown motor
Mass
297 kg wet, ~275 kg dry
Launch date (UTC)
2022-03-19 (4 years ago)
Launch vehicle
FALCON 9
Launch site
Air Force Eastern Test Range (AFETR)
Object type
Payload
Rocket body
Debris
Shape & HBR
Box + 1 Pan, 10.1 m
Radar Cross Section
13.562 m², Large (>1 m²)

Expand to show TLE details & history
Last TLE update: 3 days ago

TLE from 3 days ago
0 STARLINK-3716
1 52092U 22029E   26170.89275573  .00000502  00000-0  49635-4 0  9993
2 52092  53.1611 350.1983 0001292  85.2079 274.9060 15.08836678236080
Epoch: 2026-06-19T21:25Z
TLE epoch observation values (Epoch: 2026-06-19T21:25:34.095Z)
Latitude
Longitude
120.69103°
Altitude
540.569 km
Speed
7.593 km/s
True Right ascension
23h 20m 47s
True Declination
0° 00' 00"
Sunlit
Object was in daylight at epoch
Visualization orbit readout
Latitude
Unknown
Longitude
Unknown
Altitude
Unknown
Speed
Unknown
Apparent Right ascension
Unknown
Apparent Declination
Unknown
Sunlit
N/A
Visualization observer readout
Local Sidereal Time
21:24:55
Azimuth
Unknown
Elevation
Unknown
Doppler factor
Unknown
Orbital elements
Apogee altitude
540.901 km
Perigee altitude
539.114 km
Semi-major axis
6,918.144 km
Eccentricity
0.00013
Inclination
53.1611°
RAAN
350.1983°
Arg. of periapsis
85.2079°
True anomaly
274.89125°
Mean anomaly
274.906°
Eccentric anomaly
274.89862°
Mean motion
3.77189 °/min
Orbital period
95.44 mins
BSTAR
0.000049635
Loading maneuver chart data...
Computing Atmospheric mass density...
Loading historical data...
Loading historical data...
Loading historical data...
Loading historical data...
Loading historical data...
Loading historical data...
Loading historical data...

Documentation

Showing up to 5 results
|